UKUBE-1

Last updated on Sat Aug 30 2025 00:03:48 GMT+0000 (Coordinated Universal Time)

1 40074U 14037F 25241.22695649 .00012203 00000+0 82717-3 0 9992 2 40074 98.4010 210.6776 0003771 84.2581 275.9074 15.06621162604480
UTC large
Height (km)
Speed (km/s)
/
Latitude / Longitude
Inclination (degrees)
Orbital Period (minutes)
Azimuth
Elevation
Range (km)
Doppler Factor

Next 0 passes for location: London (51.5072 / 0.1276)

Sorry there are no passes over London.